EHI
0 0 0 0 0 0 0 0 0 0 0 0 0 0 0 0 0 0 0 1 2 3 6 7 6 3 2 1 0 0 0 0 0 0 0 0 0 0 0 0 0 0 0
0 0 0 0 0 0 0 0 0 0 0 0 0 0 0 0 0 0 0 0 1 3 4 5 6 6 5 3 2 1 0 0 0 0 0 0 0 0 0 0 0 0 0
0 0 0 0 0 0 0 0 0 0 0 0 0 0 0 0 0 0 0 0 1 2 3 4 6 7 7 6 4 2 0 0 0 0 0 0 0 0 0 0 0 0 0
0 0 0 0 0 0 0 0 0 0 0 0 0 0 0 0 0 0 0 0 0 1 3 4 5 6 7 6 4 2 0 0 0 0 0 0 0 0 0 0 0 0 0
0 0 0 0 0 0 0 0 0 0 0 0 0 0 0 0 0 0 0 0 0 0 1 2 3 4 4 5 3 1 0 0 0 0 0 0 0 0 0 0 0 0 0
0 0 0 0 0 0 1 1 1 0 0 0 0 0 0 0 0 0 0 0 0 0 0 0 1 1 2 3 3 2 1 1 1 1 1 0 0 0 0 0 0 0 0
0 0 0 0 0 0 1 1 1 0 0 0 0 0 0 0 0 0 0 0 0 0 0 0 0 0 1 1 2 2 3 3 3 3 3 2 1 1 1 0 0 0 0
0 0 0 1 1 0 1 1 0 0 0 0 0 0 0 0 0 0 0 0 0 0 0 0 0 0 0 0 0 1 2 2 3 4 6 5 3 2 2 1 0 0 0
0 0 0 1 2 1 1 0 0 0 0 0 0 0 0 0 0 0 0 0 0 0 0 0 0 0 0 0 0 0 0 1 2 4 7 8 5 3 3 2 1 0 0
1 1 0 1 2 3 2 1 1 1 1 1 1 0 0 0 0 0 0 0 0 0 0 0 0 0 0 0 0 0 0 1 1 3 5 6 6 4 4 3 2 1 0
2 1 0 1 3 5 4 3 2 2 2 2 2 1 1 0 0 0 0 0 0 0 0 0 0 0 0 0 0 0 0 0 0 1 2 3 3 4 3 3 2 1 1
2 1 1 2 4 5 4 3 2 2 2 3 3 2 2 1 0 0 0 0 0 0 0 0 0 0 0 0 0 0 0 0 0 0 0 0 0 1 2 1 1 1 1
3 2 2 4 5 5 4 3 2 1 1 2 2 2 1 1 0 1 0 0 0 0 0 0 0 0 0 0 0 0 0 0 0 0 0 0 0 0 0 0 0 1 2
5 3 3 4 5 4 3 3 2 1 1 1 1 0 0 0 0 0 0 0 0 0 0 0 0 0 0 0 0 0 0 0 0 0 0 0 0 0 0 0 0 1 2
5 4 4 4 3 3 2 2 2 1 0 0 0 0 0 0 0 0 0 0 0 0 0 0 0 0 0 0 0 0 0 0 0 0 0 0 0 0 0 0 0 1 1
3 3 3 3 2 1 1 1 1 0 0 0 0 0 0 0 0 0 0 0 0 0 0 0 0 0 0 0 0 0 0 0 0 0 0 0 0 0 0 0 0 0 0
2 2 3 3 3 1 0 0 0 0 0 0 0 0 0 0 0 0 0 0 0 0 0 0 0 0 0 0 0 0 0 0 0 0 0 0 0 0 0 0 0 0 0
2 2 3 4 3 2 0 0 0 0 0 0 1 1 0 0 0 0 0 0 0 0 0 0 0 0 0 0 0 0 0 0 0 0 0 0 0 0 0 0 0 0 0
2 2 3 5 3 1 0 0 0 0 1 1 1 1 0 0 0 0 0 0 0 0 0 0 0 0 0 0 0 0 0 0 0 0 0 0 0 0 0 0 0 0 0
3 3 3 3 2 1 1 1 1 1 1 1 1 1 0 0 0 0 0 0 0 0 0 0 0 0 0 0 0 0 0 0 0 0 0 0 0 0 0 0 0 0 0
3 2 2 2 1 2 2 2 2 2 1 1 0 0 0 0 0 0 0 0 0 0 0 0 0 0 0 0 0 0 0 0 0 0 0 0 0 0 0 0 0 0 0
2 1 1 1 1 1 2 2 2 1 0 0 0 0 0 0 0 0 0 0 0 0 0 0 0 0 0 0 0 0 0 0 0 0 0 0 0 0 0 0 0 0 0
2 1 0 1 1 0 1 1 1 0 0 0 0 0 0 0 0 0 0 0 0 0 0 0 0 0 0 0 0 0 0 0 0 0 0 0 0 0 0 0 0 0 0
1 1 0 0 0 0 0 0 0 0 0 0 0 0 0 0 0 0 0 0 0 0 0 0 0 0 0 0 0 0 0 0 0 0 0 0 0 0 0 0 0 0 0
1 1 1 0 0 0 0 0 0 0 0 0 0 0 0 0 0 0 0 0 0 0 0 0 0 0 0 0 0 0 0 0 0 0 0 0 0 0 0 0 0 0 0
3 2 1 0 0 0 0 0 0 0 0 0 0 0 0 0 0 0 0 0 0 0 0 0 0 0 0 0 0 0 0 0 0 0 0 0 0 0 0 0 0 0 0
Wind_Speed
1 0 0 0 0 0 0 0 1 1 1 1 0 1 2 3 3 3 2 7 8 8 9 9 10 10 9 9 9 9 9 8 8 8 8 8 8 8 8 7 7 7 7
2 1 1 1 1 1 1 1 0 1 1 0 0 1 2 2 3 3 3 5 8 8 9 10 10 10 10 10 9 9 9 9 9 9 9 9 9 9 9 8 8 8 8
2 2 1 1 1 1 1 1 1 0 1 0 0 1 1 2 2 3 3 3 3 7 9 10 10 10 10 11 11 10 10 10 9 9 10 9 10 9 9 9 9 9 9
3 2 2 2 2 1 1 1 1 0 1 1 1 1 1 2 3 3 3 3 3 4 6 9 10 10 11 12 12 12 11 11 11 10 10 11 11 10 10 10 10 10 10
4 3 3 3 2 1 1 2 1 1 1 1 2 2 2 2 3 4 4 5 4 4 4 6 10 11 12 12 12 13 13 13 12 12 12 12 11 11 10 10 10 10 10
4 4 3 3 2 2 1 1 2 1 1 2 2 1 2 2 3 4 5 4 4 5 5 5 5 7 11 12 12 13 13 13 13 13 13 13 12 11 10 10 11 11 11
4 4 3 2 2 2 3 3 2 2 1 1 1 1 2 2 3 3 4 4 4 5 5 5 5 4 4 8 10 11 12 13 13 13 14 13 13 12 12 12 12 12 12
4 4 4 3 3 2 2 2 2 1 1 2 2 1 2 2 2 2 2 4 4 4 5 6 5 5 4 4 5 10 12 13 13 13 13 12 12 12 12 13 13 12 12
3 3 4 3 3 3 3 4 4 4 2 2 2 3 2 2 2 2 1 2 2 3 4 4 5 5 6 5 5 7 10 11 13 14 13 13 12 12 12 13 13 13 12
3 3 3 4 3 3 3 4 4 3 3 3 2 2 3 3 2 2 1 0 1 2 3 3 4 4 5 4 4 6 7 8 10 12 13 12 12 12 13 13 14 14 13
1 2 2 2 3 3 3 3 2 3 3 3 3 2 2 2 3 3 3 2 1 1 1 2 2 2 3 4 4 5 6 6 7 9 9 10 10 11 12 14 15 15 15
1 2 1 1 2 2 3 3 3 3 3 3 3 2 3 2 3 3 4 3 2 1 1 1 1 1 1 2 3 3 4 5 5 6 7 8 9 10 11 12 13 13 14
1 2 1 1 1 2 2 2 2 2 2 3 3 3 3 3 2 3 3 2 2 1 1 0 1 1 1 1 1 2 2 2 2 3 4 5 6 6 7 8 10 10 10
1 1 1 1 1 1 1 1 1 2 1 2 2 2 2 2 2 2 2 2 2 1 1 1 1 1 1 1 1 1 1 1 1 1 1 2 2 3 3 3 3 4 3
0 1 1 1 1 1 0 1 1 1 1 1 1 1 1 1 1 2 2 2 3 2 1 1 0 1 1 0 1 1 1 3 3 2 2 1 1 1 2 2 2 1 1
1 2 2 1 2 1 1 1 0 0 0 0 0 0 0 1 1 1 1 1 2 2 2 0 0 1 1 1 3 2 3 6 6 6 6 5 5 5 4 4 4 4 3
2 2 2 2 2 2 2 1 1 1 1 1 1 1 0 0 0 0 0 1 1 1 2 0 1 2 2 3 3 3 3 4 5 8 8 8 7 7 6 6 5 5 5
2 2 2 3 3 3 3 2 2 2 1 1 1 1 1 1 1 1 1 1 1 1 2 1 1 1 2 2 3 3 4 4 4 9 10 10 10 10 9 8 8 7 6
2 3 3 3 3 3 3 3 2 3 2 2 2 1 1 1 1 1 2 1 1 2 2 2 1 1 1 2 3 4 5 4 4 6 8 10 11 11 10 9 8 7 6
3 3 3 3 3 3 3 3 3 3 4 4 3 3 3 2 2 2 2 2 3 3 3 3 2 2 2 2 2 2 3 3 4 5 6 7 9 10 10 9 9 8 7
4 3 4 4 4 4 3 4 4 5 5 5 5 5 5 6 6 5 4 3 3 3 3 3 2 2 2 2 1 1 2 2 3 4 3 4 4 5 5 7 8 9 8
3 4 4 4 5 4 7 8 6 5 5 5 5 5 5 6 8 9 10 9 6 4 3 3 2 2 1 1 1 1 1 1 2 3 2 3 3 4 4 4 7 8 8
4 5 5 6 6 6 9 9 9 6 6 5 5 4 5 6 6 6 9 10 10 10 7 4 3 2 1 1 1 2 2 2 2 1 1 2 2 3 3 4 6 7 7
5 5 5 5 6 7 9 9 9 7 7 7 6 6 6 6 6 5 7 8 7 7 6 5 4 4 3 3 2 2 2 3 2 2 2 2 2 2 3 3 6 6 6
5 5 5 6 6 6 9 9 8 6 6 7 7 7 7 7 8 8 7 7 7 6 8 10 10 9 9 8 5 3 3 3 2 2 3 2 2 2 2 2 4 6 6
5 5 6 6 6 6 8 9 7 5 6 6 6 7 10 9 9 8 6 6 6 4 5 6 7 7 7 7 8 4 2 2 2 1 2 1 1 1 1 1 2 3 3
Wind_Direction
173 149 114 17 314 332 48 26 27 12 15 30 171 169 185 192 196 199 209 208 207 207 206 204 200 198 198 199 200 200 199 201 201 200 203 201 197 195 196 197 196 196 196
188 181 208 240 252 236 244 262 280 345 343 350 304 215 205 204 204 207 211 219 218 215 216 215 212 211 209 210 210 208 209 208 207 207 209 209 206 206 207 207 206 206 204
194 185 200 234 242 230 228 245 273 351 297 297 271 247 209 215 214 213 210 217 227 229 226 223 220 219 218 218 217 217 217 217 216 215 214 214 214 213 214 215 214 213 211
192 183 210 229 233 212 203 217 223 236 275 254 240 247 225 221 221 218 214 216 219 229 231 229 227 225 226 227 226 226 224 223 222 222 220 220 220 220 220 219 218 216 215
193 189 210 224 214 204 208 226 193 194 226 236 242 247 241 232 227 221 218 220 220 224 229 236 235 231 231 234 233 232 230 227 227 227 227 226 225 223 222 221 221 220 218
194 192 207 214 197 194 212 213 209 203 214 224 255 269 256 239 227 223 224 224 224 226 230 235 236 240 239 238 237 236 235 232 228 227 228 228 227 225 224 223 224 226 226
197 193 205 200 193 201 213 207 194 208 224 179 148 310 303 261 241 235 226 223 227 226 226 231 232 236 244 243 243 240 238 237 232 228 228 229 230 229 227 227 228 229 231
205 203 198 202 202 205 216 209 189 183 218 177 162 148 321 328 304 251 224 221 227 222 228 229 227 231 238 240 243 241 240 240 238 234 230 229 229 230 229 230 231 230 231
219 219 205 204 206 200 212 213 200 195 210 212 190 171 184 242 304 323 272 231 222 221 232 235 233 235 236 236 246 248 244 243 242 240 237 232 230 229 231 233 233 231 231
228 224 216 207 207 206 216 220 207 202 194 213 213 213 209 192 204 297 326 296 239 234 234 238 239 233 233 234 238 244 249 250 248 247 244 238 232 230 230 234 236 235 233
258 248 230 220 220 218 221 219 208 206 203 208 206 202 210 215 213 222 266 296 335 284 251 238 244 245 237 232 239 248 246 248 250 250 250 248 245 240 235 234 237 238 235
303 299 265 239 233 228 222 215 210 207 214 216 219 209 196 200 205 208 232 249 266 278 287 264 254 261 256 247 246 251 245 244 246 249 250 253 254 252 245 242 242 243 241
291 295 287 264 247 238 225 212 203 218 219 221 229 225 214 224 207 200 211 230 239 266 284 309 275 275 275 281 283 278 276 276 257 253 256 258 259 262 259 253 249 246 245
258 301 300 285 276 260 236 204 205 231 224 234 255 231 215 234 217 208 201 192 218 255 275 285 343 326 308 325 342 322 357 32 5 314 272 268 271 275 281 280 267 255 251
336 4 349 334 319 301 233 182 210 237 215 218 251 236 229 258 237 233 219 203 195 218 268 293 309 351 339 27 10 36 47 49 48 39 37 32 36 57 69 64 52 31 337
34 31 24 21 8 8 27 139 165 214 161 203 164 124 268 276 253 240 219 222 204 195 212 254 315 349 5 44 51 58 60 56 53 54 56 58 59 62 62 64 64 57 49
49 45 43 42 28 21 31 63 63 62 89 56 55 93 320 338 53 14 126 127 154 165 177 337 40 23 36 41 37 48 57 53 51 53 55 54 53 54 52 53 54 50 48
56 50 49 53 43 33 27 44 45 37 49 43 30 45 2 9 32 33 91 100 105 129 156 146 39 30 39 44 53 58 54 58 59 55 55 54 53 52 52 50 50 50 50
70 58 57 52 43 35 35 39 44 45 44 42 45 47 13 41 41 46 77 82 80 85 101 116 67 39 47 45 55 56 54 43 51 52 53 52 50 50 51 50 49 48 47
78 65 59 52 46 44 46 48 51 50 50 49 49 53 45 50 48 57 72 71 84 87 91 96 84 59 55 39 54 53 54 45 43 39 44 49 46 47 46 45 46 46 47
77 73 69 56 43 44 46 50 52 59 60 58 53 52 56 65 70 73 80 78 90 92 92 91 82 66 57 64 54 43 74 66 56 34 33 38 38 39 36 36 45 50 52
74 74 69 64 56 52 52 59 64 61 59 60 56 53 59 57 64 70 74 73 79 94 101 96 85 81 60 60 67 77 81 71 53 20 29 33 33 35 28 36 43 51 56
78 73 68 68 64 55 60 64 66 68 63 58 54 52 59 56 58 67 67 63 59 60 70 93 89 64 53 36 78 79 74 76 76 30 32 44 29 28 17 29 38 49 52
80 77 70 69 68 60 61 64 67 66 61 55 53 57 62 53 54 68 75 69 61 52 53 63 69 57 54 54 77 92 94 88 76 51 28 47 24 16 12 16 26 37 44
85 78 72 70 71 60 55 61 67 70 64 55 52 53 60 60 53 65 76 75 66 53 58 64 66 64 62 61 65 81 77 82 67 42 23 33 19 10 10 19 23 31 34
95 89 76 66 71 65 57 61 65 76 71 62 53 50 53 60 57 61 73 77 73 55 57 57 52 48 53 53 51 56 78 83 75 47 20 24 16 9 12 7 3 10 24